AirNav   ProFlight Series 2 Aviation Headset
 
 269 users online  

MN87 Cooks Landing Airport
Ham Lake, Minnesota, USA

GOING TO HAM LAKE?


FAA INFORMATION EFFECTIVE 18 JUNE 2020

Location

FAA Identifier: MN87
Lat/Long: 45-14-37.0000N 093-13-18.0000W
45-14.616667N 093-13.300000W
45.2436111,-93.2216667
(estimated)
Elevation: 905 ft. / 276 m (estimated)
Variation: 03E (1995)
From city: 1 mile ESE of HAM LAKE, MN
Time zone: UTC -5 (UTC -6 during Standard Time)
Zip code: 55304

Airport Operations

Airport use: Private use. Permission required prior to landing
Activation date: 03/2000
Control tower: no
ARTCC: MINNEAPOLIS CENTER
FSS: PRINCETON FLIGHT SERVICE STATION
Attendance: UNATNDD
Wind indicator: yes
Segmented circle: no

Airport Communications

WX AWOS-3 at ANE (6 nm S): 120.625 (763-780-9025)
WX ASOS at MIC (12 nm SW): 125.7 (763-531-2343)
WX AWOS-3 at CBG (19 nm N): 121.125 (763-689-9562)
WX ASOS at STP (20 nm S): 118.35 (651-312-8888)

Nearby radio navigation aids

VOR radial/distance  VOR name  Freq  Var
GEPr041/8.7GOPHER VORTAC117.3006E
MSPr360/20.8MINNEAPOLIS VOR/DME115.3002E
FCMr019/26.8FLYING CLOUD VOR/DME117.7001E
FGTr351/36.8FARMINGTON VORTAC115.7006E
STCr114/39.7ST CLOUD VOR/DME112.1003E

 
NDB name  Hdg/Dist  Freq  Var  ID
CAMBRIDGE174/18.935001ECBG -.-. -... --.
HOPEY329/25.240003EPPI .--. .--. ..
PRINCETON137/25.236803EPNM .--. -. --
RUSH CITY200/29.428202EROS .-. --- ...
MORA177/38.932700WJMR .--- -- .-.

Airport Services

Runway Information

Runway 18/36

Dimensions: 1070 x 120 ft. / 326 x 37 m
Surface: turf
RUNWAY 18  RUNWAY 36
Traffic pattern: leftleft
Displaced threshold: no500 ft.
RY 36 DSPLCD THLD MKD WITH WHITE HORSE FENCING.
Obstructions: none25 ft. pline, 500 ft. from runway

Airport Ownership and Management from official FAA records

Ownership: Privately-owned
Owner: CHARLES S. COOK
1845 149TH AVE
HAM LAKE, MN 55304
Phone (612) 701-2816
Manager: CHARLES S. COOK
1845 149TH AVE
HAM LAKE, MN 55304
Phone 612-757-7568

Additional Remarks

DO NOT CHART PER MINNESOTA DEPARTMENT OF TRANSPORTATION
FOR CD CTC MINNEAPOLIS ARTCC AT 651-463-5588.

Instrument Procedures

There are no published instrument procedures at MN87.

Some nearby airports with instrument procedures:

KANE - Anoka County-Blaine Airport (Janes Field) (6 nm S)
KMIC - Crystal Airport (12 nm SW)
KCBG - Cambridge Municipal Airport (19 nm N)
KSTP - St Paul Downtown Airport Holman Field (20 nm S)
21D - Lake Elmo Airport (21 nm SE)
 
Loc | Ops | Rwys | IFR | FBO | Links
Com | Nav | Svcs | Stats | Notes
Area around MN87 (Cooks Landing Airport)
 
Road maps at: MapQuest Bing Google
 
Aerial photo
No photo
 
Sectional chart

 
Airport distance calculator
Flying to Cooks Landing Airport? Find the distance to fly.

From to MN87

Sunrise and sunset
Times for 09-Jul-2020
 Local
(UTC-5)
 Zulu
(UTC)
Morning civil twilight05:0010:00
Sunrise05:3610:36
Sunset21:0002:00
Evening civil twilight21:3702:37

Current date and time
Zulu (UTC)  09-Jul-2020 09:15:29
Local (UTC-5)  09-Jul-2020 04:15:29
 
METAR
KANE 
7nm S 
090856Z AUTO 16006KT 10SM CLR 26/22 A2975 RMK AO2
KMIC 
12nm SW 
090853Z AUTO 18007KT 10SM FEW050 27/21 A2975 RMK AO2 LTG DSNT N SLP066 T02720206 50004
KCBG 
19nm N 
090855Z AUTO 02004G20KT 7SM +VCTSRA SCT032 SCT039 BKN044 23/16 A2980 RMK AO2 P0005 LTG DSNT ALQDS P0005
KSTP 
20nm S 
090853Z AUTO 16006KT 10SM FEW070 26/23 A2977 RMK AO2 SLP072 T02560233 50005
TAF
NOTAMs
Click for the latest NOTAMs
NOTAMs are issued by the DoD/FAA and will open in a separate window not controlled by AirNav.

 

 
 

Would you like to see your business listed on this page?

 If your business provides an interesting product or service to pilots, flight crews, aircraft, or users of the Cooks Landing Airport, you should consider listing it here.  To start the listing process, click on the button below
 
Add a business
 

Other Pages about Cooks Landing Airport

Update a link
 
Copyright © AirNav, LLC. All rights reserved. Privacy Policy  Contact